Regional Weather Roundup
Issued by NWS

Home | Current Version | Previous Version | Text Only | Print | Product List | Glossary Off
Versions: 1 2 3 4 5 6 7 8 9 10 11 12 13 14 15 16 17 18 19 20 21 22 23 24 25 26 27 28 29 30 31 32 33 34 35 36 37 38 39 40 41 42 43 44 45 46 47 48 49 50

816
ASUS43 KFSD 232102
RWRSD

WEATHER ROUNDUP FOR SOUTH DAKOTA
NATIONAL WEATHER SERVICE SIOUX FALLS SD
300 PM CST FRI FEB 23 2018

NOTE: "FAIR" INDICATES FEW OR NO CLOUDS BELOW 12,000 FEET WITH NO
SIGNIFICANT WEATHER AND/OR OBSTRUCTIONS TO VISIBILITY.


SDZ001>005-009-010-012>017-232200-
NORTHWEST AND NORTH CENTRAL SOUTH DAKOTA

CITY           SKY/WX    TMP DP  RH WIND       PRES   REMARKS
BUFFALO          N/A     10   1  67 CALM      30.03F
FAITH            N/A     10   2  69 S5        30.16F WCI   2
MOBRIDGE       SUNNY     18   6  59 NW3       30.21F
$$

SDZ012>016-024>037-041>051-057-063-072>074-232200-
SOUTHWEST AND SOUTH CENTRAL SOUTH DAKOTA

CITY           SKY/WX    TMP DP  RH WIND       PRES   REMARKS
RAPID CTY ARPT SUNNY     16   8  71 S12       30.10F WCI   3
PIERRE         SUNNY     13   6  74 NW5       30.24F WCI   5
CUSTER         SUNNY     26   1  34 VRB3      29.95F
ELLSWORTH AFB  SUNNY     19   8  62 S13       30.08F WCI   5
PHILIP         SUNNY     15   5  64 NW5       30.20F WCI   8
PINE RIDGE     SUNNY     23   9  55 NE6       30.12F WCI  16
SPEARFISH        N/A     16   5  62 N5        30.03F WCI   9
WINNER         FAIR      17   8  67 W6        30.24F WCI   9
$$

SDZ004>011-016>023-039-040-232200-
NORTHEAST SOUTH DAKOTA

CITY           SKY/WX    TMP DP  RH WIND       PRES   REMARKS
ABERDEEN       SUNNY     21  10  62 N6        30.26F WCI  13
WATERTOWN      PTSUNNY   20  16  84 W7        30.21F WCI  11
BROOKINGS      CLOUDY    23  17  78 W7        30.23F WCI  15
SISSETON         N/A     22  12  65 N7        30.24R WCI  13
$$

SDZ017-020-022-023-036>040-048>070-232200-
SOUTHEAST SOUTH DAKOTA

CITY           SKY/WX    TMP DP  RH WIND       PRES   REMARKS
SIOUX FALLS    CLOUDY    20  17  88 NW5       30.27S WCI  13
HURON          SUNNY     19  11  70 W5        30.27F WCI  12
CHAMBERLAIN    SUNNY     18  11  75 SW3       30.26F
MITCHELL       SUNNY     20  13  74 SW5       30.29F WCI  13
YANKTON        CLOUDY    23  16  74 W6        30.31F WCI  16
$$

ABBREVIATIONS USED IN REMARKS
   TC - TEMPERATURE IN CELSIUS
  WCI - WIND CHILL INDEX
   HX - HEAT INDEX
  VSB - VISIBILITY





USA.gov is the U.S. government's official web portal to all federal, state and local government web resources and services.